Time,TemperatureF,DewpointF,PressureIn,WindDirection,WindDirectionDegrees,WindSpeedMPH,WindSpeedGustMPH,Humidity,HourlyPrecipIn,Conditions,Clouds,dailyrainin,SoftwareType,DateUTC
2013-08-15 00:01:00,66.6,55.9,30.32,North,0,0.0,0.0,68,0.00,,,0.00,WUHU216TE923,2013-08-15 04:01:00,
2013-08-15 00:06:00,66.4,56.5,30.30,ENE,68,0.0,0.0,70,0.00,,,0.00,WUHU216TE923,2013-08-15 04:06:00,
2013-08-15 00:11:00,66.4,56.5,30.30,ENE,68,0.0,0.0,70,0.00,,,0.00,WUHU216TE923,2013-08-15 04:11:00,
2013-08-15 00:16:00,66.4,56.9,30.30,North,0,0.0,0.0,71,0.00,,,0.00,WUHU216TE923,2013-08-15 04:16:00,
2013-08-15 00:21:00,66.4,56.9,30.30,North,0,0.0,0.0,71,0.00,,,0.00,WUHU216TE923,2013-08-15 04:21:00,
2013-08-15 00:26:00,66.4,57.2,30.26,NNE,23,0.0,0.0,72,0.00,,,0.00,WUHU216TE923,2013-08-15 04:26:00,
2013-08-15 00:31:00,66.4,57.2,30.26,NNE,23,0.0,0.0,72,0.00,,,0.00,WUHU216TE923,2013-08-15 04:31:00,
2013-08-15 00:36:00,66.4,57.6,30.26,West,270,0.0,0.0,73,0.00,,,0.00,WUHU216TE923,2013-08-15 04:36:00,
2013-08-15 00:41:00,66.4,57.6,30.26,West,270,0.0,0.0,73,0.00,,,0.00,WUHU216TE923,2013-08-15 04:41:00,
2013-08-15 00:46:00,66.2,57.8,30.28,ENE,68,0.0,0.0,74,0.00,,,0.00,WUHU216TE923,2013-08-15 04:46:00,
2013-08-15 00:51:00,66.2,57.8,30.28,ENE,68,0.0,0.0,74,0.00,,,0.00,WUHU216TE923,2013-08-15 04:51:00,
2013-08-15 00:56:00,66.0,57.6,30.28,NNE,23,0.0,0.0,74,0.03,,,0.03,WUHU216TE923,2013-08-15 04:56:00,
2013-08-15 01:01:00,66.0,57.6,30.28,NNE,23,0.0,0.0,74,0.03,,,0.03,WUHU216TE923,2013-08-15 05:01:00,
2013-08-15 01:06:00,66.0,58.0,30.29,NNE,23,0.0,0.0,75,0.03,,,0.03,WUHU216TE923,2013-08-15 05:06:00,
2013-08-15 01:11:00,66.0,58.0,30.29,NNE,23,0.0,0.0,75,0.03,,,0.03,WUHU216TE923,2013-08-15 05:11:00,
2013-08-15 01:16:00,66.0,58.0,30.29,NNE,23,0.0,0.0,75,0.03,,,0.03,WUHU216TE923,2013-08-15 05:16:00,
2013-08-15 01:21:00,66.0,58.0,30.29,NNE,23,0.0,0.0,75,0.03,,,0.03,WUHU216TE923,2013-08-15 05:21:00,
2013-08-15 01:26:00,66.0,58.3,30.24,East,90,0.0,0.0,76,0.03,,,0.03,WUHU216TE923,2013-08-15 05:26:00,
2013-08-15 01:31:00,66.0,58.3,30.24,East,90,0.0,0.0,76,0.03,,,0.03,WUHU216TE923,2013-08-15 05:31:00,
2013-08-15 01:36:00,66.0,58.3,30.24,NE,45,0.0,0.0,76,0.03,,,0.03,WUHU216TE923,2013-08-15 05:36:00,
2013-08-15 01:41:00,66.0,58.3,30.24,NE,45,0.0,0.0,76,0.03,,,0.03,WUHU216TE923,2013-08-15 05:41:00,
2013-08-15 01:46:00,66.0,58.3,30.27,NNE,23,0.0,0.0,76,0.00,,,0.03,WUHU216TE923,2013-08-15 05:46:00,
2013-08-15 01:51:00,66.0,58.3,30.27,NNE,23,0.0,0.0,76,0.00,,,0.03,WUHU216TE923,2013-08-15 05:51:00,
2013-08-15 01:56:00,66.0,58.7,30.27,NNE,23,0.0,0.0,77,0.00,,,0.03,WUHU216TE923,2013-08-15 05:56:00,
2013-08-15 02:01:00,66.0,58.7,30.27,NNE,23,0.0,0.0,77,0.00,,,0.03,WUHU216TE923,2013-08-15 06:01:00,
2013-08-15 02:06:00,66.0,58.7,30.28,NE,45,0.0,0.0,77,0.00,,,0.03,WUHU216TE923,2013-08-15 06:06:00,
2013-08-15 02:11:00,66.0,58.7,30.28,NE,45,0.0,0.0,77,0.00,,,0.03,WUHU216TE923,2013-08-15 06:11:00,
2013-08-15 02:16:00,66.0,58.7,30.28,NNE,23,0.0,0.0,77,0.00,,,0.03,WUHU216TE923,2013-08-15 06:16:00,
2013-08-15 02:21:00,66.0,58.7,30.28,NNE,23,0.0,0.0,77,0.00,,,0.03,WUHU216TE923,2013-08-15 06:21:00,
2013-08-15 02:26:00,66.0,59.0,30.25,East,90,0.0,0.0,78,0.00,,,0.03,WUHU216TE923,2013-08-15 06:26:00,
2013-08-15 02:31:00,66.0,59.0,30.25,East,90,0.0,0.0,78,0.00,,,0.03,WUHU216TE923,2013-08-15 06:31:00,
2013-08-15 02:36:00,65.8,58.8,30.25,ENE,68,0.0,0.0,78,0.00,,,0.03,WUHU216TE923,2013-08-15 06:36:00,
2013-08-15 02:41:00,65.8,58.8,30.25,ENE,68,0.0,0.0,78,0.00,,,0.03,WUHU216TE923,2013-08-15 06:41:00,
2013-08-15 02:46:00,65.8,58.8,30.26,East,90,0.0,0.0,78,0.00,,,0.03,WUHU216TE923,2013-08-15 06:46:00,
2013-08-15 02:51:00,65.8,58.8,30.26,East,90,0.0,0.0,78,0.00,,,0.03,WUHU216TE923,2013-08-15 06:51:00,
2013-08-15 02:56:00,65.7,59.1,30.26,NNE,23,0.0,0.0,79,0.00,,,0.03,WUHU216TE923,2013-08-15 06:56:00,
2013-08-15 03:01:00,65.7,59.1,30.26,NNE,23,0.0,0.0,79,0.00,,,0.03,WUHU216TE923,2013-08-15 07:01:00,
2013-08-15 03:06:00,65.5,58.5,30.21,NE,45,0.0,0.0,78,0.00,,,0.03,WUHU216TE923,2013-08-15 07:06:00,
2013-08-15 03:11:00,65.5,58.5,30.21,NE,45,0.0,0.0,78,0.00,,,0.03,WUHU216TE923,2013-08-15 07:11:00,
2013-08-15 03:16:00,65.5,58.9,30.21,ENE,68,0.0,0.0,79,0.00,,,0.03,WUHU216TE923,2013-08-15 07:16:00,
2013-08-15 03:21:00,65.5,58.9,30.21,ENE,68,0.0,0.0,79,0.00,,,0.03,WUHU216TE923,2013-08-15 07:21:00,
2013-08-15 03:26:00,65.1,58.2,30.24,NE,45,0.0,0.0,78,0.00,,,0.03,WUHU216TE923,2013-08-15 07:26:00,
2013-08-15 03:31:00,65.1,58.2,30.24,NE,45,0.0,0.0,78,0.00,,,0.03,WUHU216TE923,2013-08-15 07:31:00,
2013-08-15 03:36:00,64.9,58.0,30.24,NNE,23,0.0,0.0,78,0.00,,,0.03,WUHU216TE923,2013-08-15 07:36:00,
2013-08-15 03:41:00,64.9,58.0,30.24,NNE,23,0.0,0.0,78,0.00,,,0.03,WUHU216TE923,2013-08-15 07:41:00,
2013-08-15 03:46:00,64.6,57.7,30.30,NNE,23,0.0,0.0,78,0.00,,,0.03,WUHU216TE923,2013-08-15 07:46:00,
2013-08-15 03:51:00,64.6,57.7,30.30,NNE,23,0.0,0.0,78,0.00,,,0.03,WUHU216TE923,2013-08-15 07:51:00,
2013-08-15 03:56:00,64.6,57.7,30.30,NE,45,0.0,0.0,78,0.00,,,0.03,WUHU216TE923,2013-08-15 07:56:00,
2013-08-15 04:01:00,64.6,57.7,30.30,NE,45,0.0,0.0,78,0.00,,,0.03,WUHU216TE923,2013-08-15 08:01:00,
2013-08-15 04:06:00,64.4,57.5,30.26,NE,45,0.0,0.0,78,0.00,,,0.03,WUHU216TE923,2013-08-15 08:06:00,
2013-08-15 04:11:00,64.4,57.5,30.26,NE,45,0.0,0.0,78,0.00,,,0.03,WUHU216TE923,2013-08-15 08:11:00,
2013-08-15 04:16:00,64.2,57.3,30.26,ESE,113,0.0,0.0,78,0.00,,,0.03,WUHU216TE923,2013-08-15 08:16:00,
2013-08-15 04:21:00,64.2,57.3,30.26,ESE,113,0.0,0.0,78,0.00,,,0.03,WUHU216TE923,2013-08-15 08:21:00,
2013-08-15 04:26:00,64.0,57.1,30.30,NE,45,0.0,0.0,78,0.00,,,0.03,WUHU216TE923,2013-08-15 08:26:00,
2013-08-15 04:31:00,64.0,57.1,30.30,NE,45,0.0,0.0,78,0.00,,,0.03,WUHU216TE923,2013-08-15 08:31:00,
2013-08-15 04:36:00,63.9,57.3,30.30,East,90,0.0,0.0,79,0.00,,,0.03,WUHU216TE923,2013-08-15 08:36:00,
2013-08-15 04:41:00,63.9,57.3,30.30,East,90,0.0,0.0,79,0.00,,,0.03,WUHU216TE923,2013-08-15 08:41:00,
2013-08-15 04:46:00,63.7,57.1,30.34,ENE,68,0.0,0.0,79,0.00,,,0.03,WUHU216TE923,2013-08-15 08:46:00,
2013-08-15 04:51:00,63.7,57.1,30.34,ENE,68,0.0,0.0,79,0.00,,,0.03,WUHU216TE923,2013-08-15 08:51:00,
2013-08-15 04:56:00,63.5,56.9,30.34,ENE,68,0.0,0.0,79,0.00,,,0.03,WUHU216TE923,2013-08-15 08:56:00,
2013-08-15 05:01:00,63.5,56.9,30.34,ENE,68,0.0,0.0,79,0.00,,,0.03,WUHU216TE923,2013-08-15 09:01:00,
2013-08-15 05:06:00,63.3,56.8,30.30,ESE,113,0.1,0.1,79,0.00,,,0.03,WUHU216TE923,2013-08-15 09:06:00,
2013-08-15 05:11:00,63.3,56.8,30.30,ESE,113,0.1,0.1,79,0.00,,,0.03,WUHU216TE923,2013-08-15 09:11:00,
2013-08-15 05:16:00,63.3,56.8,30.30,ENE,68,0.0,0.1,79,0.00,,,0.03,WUHU216TE923,2013-08-15 09:16:00,
2013-08-15 05:21:00,63.3,56.8,30.30,ENE,68,0.0,0.1,79,0.00,,,0.03,WUHU216TE923,2013-08-15 09:21:00,
2013-08-15 05:26:00,63.1,56.6,30.30,ENE,68,0.0,0.0,79,0.00,,,0.03,WUHU216TE923,2013-08-15 09:26:00,
2013-08-15 05:31:00,63.1,56.6,30.30,ENE,68,0.0,0.0,79,0.00,,,0.03,WUHU216TE923,2013-08-15 09:31:00,
2013-08-15 05:36:00,63.0,56.5,30.30,East,90,0.0,0.0,79,0.00,,,0.03,WUHU216TE923,2013-08-15 09:36:00,
2013-08-15 05:41:00,63.0,56.5,30.30,East,90,0.0,0.0,79,0.00,,,0.03,WUHU216TE923,2013-08-15 09:41:00,
2013-08-15 05:46:00,62.8,56.3,30.34,East,90,0.0,0.0,79,0.00,,,0.03,WUHU216TE923,2013-08-15 09:46:00,
2013-08-15 05:51:00,62.8,56.3,30.34,East,90,0.0,0.0,79,0.00,,,0.03,WUHU216TE923,2013-08-15 09:51:00,
2013-08-15 05:56:00,62.4,55.9,30.34,East,90,0.0,0.0,79,0.00,,,0.03,WUHU216TE923,2013-08-15 09:56:00,
2013-08-15 06:01:00,62.4,55.9,30.34,East,90,0.0,0.0,79,0.00,,,0.03,WUHU216TE923,2013-08-15 10:01:00,
2013-08-15 06:06:00,62.2,55.7,30.39,East,90,0.0,0.0,79,0.00,,,0.03,WUHU216TE923,2013-08-15 10:06:00,
2013-08-15 06:11:00,62.2,55.7,30.39,East,90,0.0,0.0,79,0.00,,,0.03,WUHU216TE923,2013-08-15 10:11:00,
2013-08-15 06:16:00,62.1,55.6,30.39,East,90,0.0,0.0,79,0.00,,,0.03,WUHU216TE923,2013-08-15 10:16:00,
2013-08-15 06:21:00,62.1,55.6,30.39,East,90,0.0,0.0,79,0.00,,,0.03,WUHU216TE923,2013-08-15 10:21:00,
2013-08-15 06:26:00,62.1,55.6,30.36,ENE,68,0.0,0.0,79,0.00,,,0.03,WUHU216TE923,2013-08-15 10:26:00,
2013-08-15 06:31:00,62.1,55.6,30.36,ENE,68,0.0,0.0,79,0.00,,,0.03,WUHU216TE923,2013-08-15 10:31:00,
2013-08-15 06:36:00,61.9,55.0,30.36,ENE,68,0.0,0.0,78,0.00,,,0.03,WUHU216TE923,2013-08-15 10:36:00,
2013-08-15 06:41:00,61.9,55.0,30.36,ENE,68,0.0,0.0,78,0.00,,,0.03,WUHU216TE923,2013-08-15 10:41:00,
2013-08-15 06:46:00,61.7,55.2,30.40,ENE,68,0.0,0.0,79,0.00,,,0.03,WUHU216TE923,2013-08-15 10:46:00,
2013-08-15 06:51:00,61.7,55.2,30.40,ENE,68,0.0,0.0,79,0.00,,,0.03,WUHU216TE923,2013-08-15 10:51:00,
2013-08-15 06:56:00,61.7,55.2,30.40,ESE,113,0.0,0.0,79,0.00,,,0.03,WUHU216TE923,2013-08-15 10:56:00,
2013-08-15 07:01:00,61.7,55.2,30.40,ESE,113,0.0,0.0,79,0.00,,,0.03,WUHU216TE923,2013-08-15 11:01:00,
2013-08-15 07:06:00,61.9,55.4,30.41,ESE,113,0.0,0.0,79,0.00,,,0.03,WUHU216TE923,2013-08-15 11:06:00,
2013-08-15 07:11:00,61.9,55.4,30.41,ESE,113,0.0,0.0,79,0.00,,,0.03,WUHU216TE923,2013-08-15 11:11:00,
2013-08-15 07:16:00,62.1,55.9,30.41,ENE,68,0.0,0.0,80,0.00,,,0.03,WUHU216TE923,2013-08-15 11:16:00,
2013-08-15 07:21:00,62.1,55.9,30.41,ENE,68,0.0,0.0,80,0.00,,,0.03,WUHU216TE923,2013-08-15 11:21:00,
2013-08-15 07:26:00,62.1,55.9,30.41,ENE,68,0.0,0.0,80,0.00,,,0.03,WUHU216TE923,2013-08-15 11:26:00,
2013-08-15 07:41:00,62.2,56.0,30.41,ENE,68,0.0,0.0,80,0.00,,,0.03,WUHU216TE923,2013-08-15 11:41:00,
2013-08-15 07:46:00,62.2,56.0,30.41,ENE,68,0.0,0.0,80,0.00,,,0.03,WUHU216TE923,2013-08-15 11:46:00,
2013-08-15 07:51:00,62.4,56.5,30.44,ENE,68,0.0,0.0,81,0.00,,,0.03,WUHU216TE923,2013-08-15 11:51:00,
2013-08-15 07:56:00,62.4,56.5,30.44,ENE,68,0.0,0.0,81,0.00,,,0.03,WUHU216TE923,2013-08-15 11:56:00,
2013-08-15 08:01:00,62.6,56.7,30.44,East,90,0.0,0.0,81,0.00,,,0.03,WUHU216TE923,2013-08-15 12:01:00,
2013-08-15 08:06:00,62.8,56.9,30.44,ESE,113,0.0,0.0,81,0.00,,,0.03,WUHU216TE923,2013-08-15 12:06:00,
2013-08-15 08:11:00,63.0,57.5,30.43,ENE,68,0.0,0.0,82,0.00,,,0.03,WUHU216TE923,2013-08-15 12:11:00,
2013-08-15 08:16:00,63.0,57.5,30.43,ENE,68,0.0,0.0,82,0.00,,,0.03,WUHU216TE923,2013-08-15 12:16:00,
2013-08-15 08:21:00,63.3,57.8,30.43,ESE,113,0.0,0.0,82,0.00,,,0.03,WUHU216TE923,2013-08-15 12:21:00,
2013-08-15 08:26:00,63.3,57.8,30.43,ESE,113,0.0,0.0,82,0.00,,,0.03,WUHU216TE923,2013-08-15 12:26:00,
2013-08-15 08:31:00,63.5,57.6,30.41,NE,45,0.0,0.0,81,0.00,,,0.03,WUHU216TE923,2013-08-15 12:31:00,
2013-08-15 08:36:00,63.5,57.6,30.41,NE,45,0.0,0.0,81,0.00,,,0.03,WUHU216TE923,2013-08-15 12:36:00,
2013-08-15 08:41:00,63.7,57.8,30.41,NE,45,0.0,0.0,81,0.00,,,0.03,WUHU216TE923,2013-08-15 12:41:00,
2013-08-15 08:46:00,63.7,57.8,30.41,NE,45,0.0,0.0,81,0.00,,,0.03,WUHU216TE923,2013-08-15 12:46:00,
2013-08-15 08:51:00,64.2,58.3,30.41,ESE,113,0.0,0.0,81,0.00,,,0.03,WUHU216TE923,2013-08-15 12:51:00,
2013-08-15 08:56:00,64.2,58.3,30.41,ESE,113,0.0,0.0,81,0.00,,,0.03,WUHU216TE923,2013-08-15 12:56:00,
2013-08-15 09:01:00,64.6,58.4,30.41,NNE,23,0.0,0.0,80,0.00,,,0.03,WUHU216TE923,2013-08-15 13:01:00,
2013-08-15 09:06:00,64.6,58.4,30.41,NNE,23,0.0,0.0,80,0.00,,,0.03,WUHU216TE923,2013-08-15 13:06:00,
2013-08-15 09:11:00,64.9,58.7,30.41,ENE,68,0.0,0.0,80,0.00,,,0.03,WUHU216TE923,2013-08-15 13:11:00,
2013-08-15 09:16:00,64.9,58.7,30.41,ENE,68,0.0,0.0,80,0.00,,,0.03,WUHU216TE923,2013-08-15 13:16:00,
2013-08-15 09:21:00,65.8,59.2,30.41,East,90,0.0,0.0,79,0.00,,,0.03,WUHU216TE923,2013-08-15 13:21:00,
2013-08-15 09:26:00,65.8,59.2,30.41,East,90,0.0,0.0,79,0.00,,,0.03,WUHU216TE923,2013-08-15 13:26:00,
2013-08-15 09:31:00,66.9,59.2,30.40,ESE,113,0.1,1.3,76,0.00,,,0.03,WUHU216TE923,2013-08-15 13:31:00,
2013-08-15 09:36:00,66.9,59.2,30.40,ESE,113,0.1,1.3,76,0.00,,,0.03,WUHU216TE923,2013-08-15 13:36:00,
2013-08-15 09:41:00,68.0,57.6,30.40,NNE,23,0.2,0.2,69,0.00,,,0.03,WUHU216TE923,2013-08-15 13:41:00,
2013-08-15 09:46:00,68.0,57.6,30.40,NNE,23,0.2,0.2,69,0.00,,,0.03,WUHU216TE923,2013-08-15 13:46:00,
2013-08-15 09:51:00,68.0,57.6,30.38,SE,135,0.1,0.1,69,0.00,,,0.03,WUHU216TE923,2013-08-15 13:51:00,
2013-08-15 09:56:00,68.0,57.6,30.38,SE,135,0.1,0.1,69,0.00,,,0.03,WUHU216TE923,2013-08-15 13:56:00,
2013-08-15 10:01:00,68.7,55.3,30.38,East,90,0.0,0.1,62,0.00,,,0.03,WUHU216TE923,2013-08-15 14:01:00,
2013-08-15 10:06:00,68.7,55.3,30.38,East,90,0.0,0.1,62,0.00,,,0.03,WUHU216TE923,2013-08-15 14:06:00,
2013-08-15 10:11:00,68.7,54.9,30.39,WSW,248,0.0,0.0,61,0.00,,,0.03,WUHU216TE923,2013-08-15 14:11:00,
2013-08-15 10:16:00,68.7,54.9,30.39,WSW,248,0.0,0.0,61,0.00,,,0.03,WUHU216TE923,2013-08-15 14:16:00,
2013-08-15 10:21:00,69.1,54.3,30.39,WSW,248,0.0,0.0,59,0.00,,,0.03,WUHU216TE923,2013-08-15 14:21:00,
2013-08-15 10:26:00,69.1,54.3,30.39,WSW,248,0.0,0.0,59,0.00,,,0.03,WUHU216TE923,2013-08-15 14:26:00,
2013-08-15 10:31:00,69.6,53.3,30.34,ENE,68,0.3,1.1,56,0.00,,,0.03,WUHU216TE923,2013-08-15 14:31:00,
2013-08-15 10:36:00,69.6,53.3,30.34,ENE,68,0.3,1.1,56,0.00,,,0.03,WUHU216TE923,2013-08-15 14:36:00,
2013-08-15 10:41:00,70.5,54.2,30.34,NNW,338,0.5,1.7,56,0.00,,,0.03,WUHU216TE923,2013-08-15 14:41:00,
2013-08-15 10:46:00,70.5,54.2,30.34,NNW,338,0.5,1.7,56,0.00,,,0.03,WUHU216TE923,2013-08-15 14:46:00,
2013-08-15 10:51:00,70.5,53.7,30.30,SSE,158,0.3,0.5,55,0.00,,,0.03,WUHU216TE923,2013-08-15 14:51:00,
2013-08-15 10:56:00,70.5,53.7,30.30,SSE,158,0.3,0.5,55,0.00,,,0.03,WUHU216TE923,2013-08-15 14:56:00,
2013-08-15 11:01:00,70.7,53.9,30.30,WNW,293,0.3,2.1,55,0.00,,,0.03,WUHU216TE923,2013-08-15 15:01:00,
2013-08-15 11:06:00,70.7,53.9,30.30,WNW,293,0.3,2.1,55,0.00,,,0.03,WUHU216TE923,2013-08-15 15:06:00,
2013-08-15 11:12:00,71.1,52.7,30.34,NE,45,0.6,1.8,52,0.00,,,0.03,WUHU216TE923,2013-08-15 15:12:00,
2013-08-15 11:17:00,71.1,52.7,30.34,NE,45,0.6,1.8,52,0.00,,,0.03,WUHU216TE923,2013-08-15 15:17:00,
2013-08-15 11:22:00,71.4,53.0,30.34,ENE,68,0.4,1.0,52,0.00,,,0.03,WUHU216TE923,2013-08-15 15:22:00,
2013-08-15 11:27:00,72.3,53.8,30.35,NE,45,0.9,2.4,52,0.00,,,0.03,WUHU216TE923,2013-08-15 15:27:00,
2013-08-15 11:32:00,72.0,51.8,30.35,NNE,23,0.7,2.4,49,0.00,,,0.03,WUHU216TE923,2013-08-15 15:32:00,
2013-08-15 11:37:00,72.5,54.5,30.35,SE,135,0.4,0.7,53,0.00,,,0.03,WUHU216TE923,2013-08-15 15:37:00,
2013-08-15 11:42:00,72.5,53.4,30.35,SW,225,0.1,0.4,51,0.00,,,0.03,WUHU216TE923,2013-08-15 15:42:00,
2013-08-15 11:47:00,72.5,52.3,30.33,ENE,68,0.1,0.1,49,0.00,,,0.03,WUHU216TE923,2013-08-15 15:47:00,
2013-08-15 11:52:00,73.2,54.1,30.33,ENE,68,0.1,0.1,51,0.00,,,0.03,WUHU216TE923,2013-08-15 15:52:00,
2013-08-15 11:57:00,73.2,52.9,30.33,ENE,68,0.2,0.2,49,0.00,,,0.03,WUHU216TE923,2013-08-15 15:57:00,
2013-08-15 12:02:00,73.2,52.9,30.33,SSW,203,0.4,0.4,49,0.00,,,0.03,WUHU216TE923,2013-08-15 16:02:00,
2013-08-15 12:07:00,73.4,53.1,30.33,SSW,203,0.4,1.0,49,0.00,,,0.03,WUHU216TE923,2013-08-15 16:07:00,
2013-08-15 12:12:00,74.1,53.8,30.33,East,90,0.3,1.2,49,0.00,,,0.03,WUHU216TE923,2013-08-15 16:12:00,
2013-08-15 12:17:00,74.1,52.0,30.33,WSW,248,0.5,2.3,46,0.00,,,0.03,WUHU216TE923,2013-08-15 16:17:00,
2013-08-15 12:22:00,73.9,51.8,30.33,NW,315,0.7,2.3,46,0.00,,,0.03,WUHU216TE923,2013-08-15 16:22:00,
2013-08-15 12:27:00,73.9,52.4,30.33,NE,45,0.6,0.7,47,0.00,,,0.03,WUHU216TE923,2013-08-15 16:27:00,
2013-08-15 12:32:00,74.5,53.0,30.33,NNE,23,0.4,1.4,47,0.00,,,0.03,WUHU216TE923,2013-08-15 16:32:00,
2013-08-15 12:37:00,74.8,52.6,30.33,ENE,68,0.6,1.4,46,0.00,,,0.03,WUHU216TE923,2013-08-15 16:37:00,
2013-08-15 12:42:00,74.8,52.0,30.33,ENE,68,0.7,0.7,45,0.00,,,0.03,WUHU216TE923,2013-08-15 16:42:00,
2013-08-15 12:47:00,75.4,52.6,30.33,NNE,23,0.4,1.0,45,0.00,,,0.03,WUHU216TE923,2013-08-15 16:47:00,
2013-08-15 12:52:00,75.2,51.1,30.33,NW,315,0.4,1.0,43,0.00,,,0.03,WUHU216TE923,2013-08-15 16:52:00,
2013-08-15 12:57:00,75.9,53.0,30.26,South,180,0.4,0.4,45,0.00,,,0.03,WUHU216TE923,2013-08-15 16:57:00,
2013-08-15 13:02:00,75.4,51.3,30.26,West,270,0.2,0.4,43,0.00,,,0.03,WUHU216TE923,2013-08-15 17:02:00,
2013-08-15 13:07:00,75.6,52.8,30.25,South,180,0.2,0.2,45,0.00,,,0.03,WUHU216TE923,2013-08-15 17:07:00,
2013-08-15 13:14:00,75.9,51.1,30.25,South,180,0.2,0.2,42,0.00,,,0.03,WUHU216TE923,2013-08-15 17:14:00,
2013-08-15 13:19:00,76.1,51.9,30.25,SSE,158,0.4,0.4,43,0.00,,,0.03,WUHU216TE923,2013-08-15 17:19:00,
2013-08-15 13:24:00,76.3,50.1,30.25,NNW,338,0.7,2.7,40,0.00,,,0.03,WUHU216TE923,2013-08-15 17:24:00,
2013-08-15 13:29:00,77.0,50.0,30.25,SW,225,1.0,2.7,39,0.00,,,0.03,WUHU216TE923,2013-08-15 17:29:00,
2013-08-15 13:34:00,77.0,49.3,30.25,South,180,1.1,3.0,38,0.00,,,0.03,WUHU216TE923,2013-08-15 17:34:00,
2013-08-15 13:39:00,77.2,50.9,30.25,NW,315,0.7,3.0,40,0.00,,,0.03,WUHU216TE923,2013-08-15 17:39:00,
2013-08-15 13:44:00,77.2,49.5,30.25,South,180,0.5,0.7,38,0.00,,,0.03,WUHU216TE923,2013-08-15 17:44:00,
2013-08-15 13:49:00,76.6,49.7,30.25,East,90,0.4,0.5,39,0.00,,,0.03,WUHU216TE923,2013-08-15 17:49:00,
2013-08-15 13:54:00,76.5,48.2,30.25,SSE,158,0.4,0.4,37,0.00,,,0.03,WUHU216TE923,2013-08-15 17:54:00,
2013-08-15 13:59:00,77.4,49.0,30.25,SSE,158,0.5,0.5,37,0.00,,,0.03,WUHU216TE923,2013-08-15 17:59:00,
2013-08-15 14:04:00,77.2,48.8,30.25,NE,45,0.8,0.8,37,0.00,,,0.03,WUHU216TE923,2013-08-15 18:04:00,
2013-08-15 14:09:00,77.9,50.8,30.25,West,270,0.7,1.0,39,0.00,,,0.03,WUHU216TE923,2013-08-15 18:09:00,
2013-08-15 14:14:00,77.9,50.8,30.25,ESE,113,0.3,1.0,39,0.00,,,0.03,WUHU216TE923,2013-08-15 18:14:00,
2013-08-15 14:19:00,78.1,51.0,30.25,West,270,0.1,0.3,39,0.00,,,0.03,WUHU216TE923,2013-08-15 18:19:00,
2013-08-15 14:24:00,77.7,50.0,30.25,West,270,0.4,0.4,38,0.00,,,0.03,WUHU216TE923,2013-08-15 18:24:00,
2013-08-15 14:29:00,78.3,51.2,30.19,SW,225,0.5,1.8,39,0.00,,,0.03,WUHU216TE923,2013-08-15 18:29:00,
2013-08-15 14:35:00,78.3,50.5,30.19,SSW,203,0.4,1.8,38,0.00,,,0.03,WUHU216TE923,2013-08-15 18:35:00,
2013-08-15 14:40:00,78.1,50.3,30.19,SE,135,0.5,1.1,38,0.00,,,0.03,WUHU216TE923,2013-08-15 18:40:00,
2013-08-15 14:45:00,77.7,50.0,30.19,WSW,248,0.5,1.2,38,0.00,,,0.03,WUHU216TE923,2013-08-15 18:45:00,
2013-08-15 14:50:00,77.7,50.0,30.20,WSW,248,0.6,1.2,38,0.00,,,0.03,WUHU216TE923,2013-08-15 18:50:00,
2013-08-15 14:55:00,77.4,49.0,30.20,NNW,338,0.6,1.0,37,0.00,,,0.03,WUHU216TE923,2013-08-15 18:55:00,
2013-08-15 15:00:00,77.9,50.8,30.20,WSW,248,0.3,0.6,39,0.00,,,0.03,WUHU216TE923,2013-08-15 19:00:00,
2013-08-15 15:05:00,77.5,49.8,30.20,North,0,0.2,1.9,38,0.00,,,0.03,WUHU216TE923,2013-08-15 19:05:00,
2013-08-15 15:10:00,77.9,49.4,30.21,SW,225,0.4,1.9,37,0.00,,,0.03,WUHU216TE923,2013-08-15 19:10:00,
2013-08-15 15:15:00,77.9,50.1,30.21,NW,315,0.5,1.6,38,0.00,,,0.03,WUHU216TE923,2013-08-15 19:15:00,
2013-08-15 15:20:00,77.4,49.7,30.21,SE,135,0.4,0.5,38,0.00,,,0.03,WUHU216TE923,2013-08-15 19:20:00,
2013-08-15 15:25:00,77.4,49.7,30.21,West,270,0.4,1.6,38,0.00,,,0.03,WUHU216TE923,2013-08-15 19:25:00,
2013-08-15 15:31:00,76.8,48.4,30.16,NNE,23,0.8,1.6,37,0.00,,,0.03,WUHU216TE923,2013-08-15 19:31:00,
2013-08-15 15:36:00,76.6,49.7,30.16,WNW,293,0.7,1.6,39,0.00,,,0.03,WUHU216TE923,2013-08-15 19:36:00,
2013-08-15 15:41:00,76.8,49.9,30.16,NNW,338,0.4,1.2,39,0.00,,,0.03,WUHU216TE923,2013-08-15 19:41:00,
2013-08-15 15:46:00,76.8,49.9,30.16,NNW,338,0.4,1.2,39,0.00,,,0.03,WUHU216TE923,2013-08-15 19:46:00,
2013-08-15 15:51:00,77.2,49.5,30.16,NNE,23,1.4,3.6,38,0.00,,,0.03,WUHU216TE923,2013-08-15 19:51:00,
2013-08-15 15:57:00,77.2,49.5,30.16,NNE,23,1.4,3.6,38,0.00,,,0.03,WUHU216TE923,2013-08-15 19:57:00,
2013-08-15 16:02:00,76.6,49.7,30.16,WSW,248,0.2,1.0,39,0.00,,,0.03,WUHU216TE923,2013-08-15 20:02:00,
2013-08-15 16:08:00,76.8,50.6,30.19,NE,45,0.3,0.3,40,0.00,,,0.03,WUHU216TE923,2013-08-15 20:08:00,
2013-08-15 16:13:00,76.6,50.4,30.19,SSW,203,0.2,0.3,40,0.00,,,0.03,WUHU216TE923,2013-08-15 20:13:00,
2013-08-15 16:18:00,76.5,50.3,30.19,WNW,293,0.0,0.2,40,0.00,,,0.03,WUHU216TE923,2013-08-15 20:18:00,
2013-08-15 16:23:00,76.3,50.8,30.19,West,270,0.1,1.0,41,0.00,,,0.03,WUHU216TE923,2013-08-15 20:23:00,
2013-08-15 16:28:00,76.3,50.8,30.20,ENE,68,0.1,1.0,41,0.00,,,0.03,WUHU216TE923,2013-08-15 20:28:00,
2013-08-15 16:33:00,76.3,51.5,30.20,NNW,338,0.0,0.1,42,0.00,,,0.03,WUHU216TE923,2013-08-15 20:33:00,
2013-08-15 16:38:00,76.5,52.3,30.20,NNE,23,0.0,0.0,43,0.00,,,0.03,WUHU216TE923,2013-08-15 20:38:00,
2013-08-15 16:43:00,76.1,51.3,30.20,NE,45,0.2,1.6,42,0.00,,,0.03,WUHU216TE923,2013-08-15 20:43:00,
2013-08-15 16:48:00,75.7,50.9,30.24,SSE,158,0.3,1.6,42,0.00,,,0.03,WUHU216TE923,2013-08-15 20:48:00,
2013-08-15 16:53:00,75.9,51.8,30.24,NW,315,0.2,0.3,43,0.00,,,0.03,WUHU216TE923,2013-08-15 20:53:00,
2013-08-15 16:59:00,75.4,50.6,30.24,West,270,0.1,1.8,42,0.00,,,0.03,WUHU216TE923,2013-08-15 20:59:00,
2013-08-15 17:04:00,74.8,50.1,30.24,NNW,338,0.3,1.8,42,0.00,,,0.03,WUHU216TE923,2013-08-15 21:04:00,
2013-08-15 17:09:00,74.7,50.0,30.27,NW,315,0.4,1.5,42,0.00,,,0.03,WUHU216TE923,2013-08-15 21:09:00,
2013-08-15 17:15:00,74.5,50.5,30.27,NW,315,0.2,1.5,43,0.00,,,0.03,WUHU216TE923,2013-08-15 21:15:00,
2013-08-15 17:20:00,74.1,50.1,30.27,WNW,293,0.1,0.2,43,0.00,,,0.03,WUHU216TE923,2013-08-15 21:20:00,
2013-08-15 17:25:00,73.9,49.9,30.27,WSW,248,0.1,0.1,43,0.00,,,0.03,WUHU216TE923,2013-08-15 21:25:00,
2013-08-15 17:30:00,73.8,51.1,30.24,SW,225,0.2,0.2,45,0.00,,,0.03,WUHU216TE923,2013-08-15 21:30:00,
2013-08-15 17:35:00,73.6,50.3,30.24,NNW,338,0.3,0.3,44,0.00,,,0.03,WUHU216TE923,2013-08-15 21:35:00,
2013-08-15 17:40:00,73.2,51.2,30.24,SSW,203,0.5,0.5,46,0.00,,,0.03,WUHU216TE923,2013-08-15 21:40:00,
2013-08-15 17:46:00,73.2,51.2,30.24,SE,135,0.3,0.5,46,0.00,,,0.03,WUHU216TE923,2013-08-15 21:46:00,
2013-08-15 17:51:00,73.2,51.2,30.24,West,270,0.1,1.7,46,0.00,,,0.03,WUHU216TE923,2013-08-15 21:51:00,
2013-08-15 17:56:00,72.9,50.9,30.24,East,90,0.3,1.7,46,0.00,,,0.03,WUHU216TE923,2013-08-15 21:56:00,
2013-08-15 18:01:00,72.7,50.7,30.24,ESE,113,0.4,0.4,46,0.00,,,0.03,WUHU216TE923,2013-08-15 22:01:00,
2013-08-15 18:06:00,72.9,51.5,30.24,NW,315,0.5,0.5,47,0.00,,,0.03,WUHU216TE923,2013-08-15 22:06:00,
2013-08-15 18:11:00,72.0,50.7,30.30,ENE,68,1.0,1.0,47,0.00,,,0.03,WUHU216TE923,2013-08-15 22:11:00,
2013-08-15 18:16:00,72.0,50.7,30.30,ENE,68,1.0,1.0,47,0.00,,,0.03,WUHU216TE923,2013-08-15 22:16:00,
2013-08-15 18:21:00,72.1,51.4,30.30,NW,315,0.7,2.5,48,0.00,,,0.03,WUHU216TE923,2013-08-15 22:21:00,
2013-08-15 18:26:00,72.1,51.4,30.30,East,90,0.5,2.5,48,0.00,,,0.03,WUHU216TE923,2013-08-15 22:26:00,
2013-08-15 18:31:00,71.6,50.9,30.31,ENE,68,0.8,1.0,48,0.00,,,0.03,WUHU216TE923,2013-08-15 22:31:00,
2013-08-15 18:36:00,71.6,50.9,30.31,ENE,68,0.8,1.0,48,0.00,,,0.03,WUHU216TE923,2013-08-15 22:36:00,
2013-08-15 18:41:00,71.4,50.7,30.31,NNE,23,0.8,1.2,48,0.00,,,0.03,WUHU216TE923,2013-08-15 22:41:00,
2013-08-15 18:46:00,71.4,50.7,30.31,NNE,23,0.8,1.2,48,0.00,,,0.03,WUHU216TE923,2013-08-15 22:46:00,
2013-08-15 18:51:00,71.1,51.0,30.31,NE,45,0.8,0.9,49,0.00,,,0.03,WUHU216TE923,2013-08-15 22:51:00,
2013-08-15 18:56:00,71.1,51.0,30.31,NE,45,0.8,0.9,49,0.00,,,0.03,WUHU216TE923,2013-08-15 22:56:00,
2013-08-15 19:01:00,70.9,50.8,30.31,NW,315,0.7,1.0,49,0.00,,,0.03,WUHU216TE923,2013-08-15 23:01:00,
2013-08-15 19:06:00,70.9,50.8,30.31,WNW,293,0.5,1.0,49,0.00,,,0.03,WUHU216TE923,2013-08-15 23:06:00,
2013-08-15 19:11:00,70.9,51.4,30.33,East,90,0.7,2.2,50,0.00,,,0.03,WUHU216TE923,2013-08-15 23:11:00,
2013-08-15 19:16:00,70.9,51.4,30.33,East,90,0.7,2.2,50,0.00,,,0.03,WUHU216TE923,2013-08-15 23:16:00,
2013-08-15 19:21:00,70.5,51.6,30.33,ENE,68,0.5,2.2,51,0.00,,,0.03,WUHU216TE923,2013-08-15 23:21:00,
2013-08-15 19:26:00,70.5,51.6,30.33,ENE,68,0.5,2.2,51,0.00,,,0.03,WUHU216TE923,2013-08-15 23:26:00,
2013-08-15 19:31:00,70.0,51.7,30.28,NNW,338,0.0,0.5,52,0.00,,,0.03,WUHU216TE923,2013-08-15 23:31:00,
2013-08-15 19:36:00,70.0,51.7,30.28,NNW,338,0.0,0.5,52,0.00,,,0.03,WUHU216TE923,2013-08-15 23:36:00,
2013-08-15 19:41:00,69.8,52.0,30.28,North,0,0.0,0.0,53,0.00,,,0.03,WUHU216TE923,2013-08-15 23:41:00,
2013-08-15 19:46:00,69.8,52.0,30.28,North,0,0.0,0.0,53,0.00,,,0.03,WUHU216TE923,2013-08-15 23:46:00,
2013-08-15 19:51:00,69.6,51.8,30.33,ENE,68,0.0,0.0,53,0.00,,,0.03,WUHU216TE923,2013-08-15 23:51:00,
2013-08-15 19:56:00,69.6,51.8,30.33,ENE,68,0.0,0.0,53,0.00,,,0.03,WUHU216TE923,2013-08-15 23:56:00,
2013-08-15 20:01:00,69.3,51.0,30.33,NE,45,0.1,0.1,52,0.00,,,0.03,WUHU216TE923,2013-08-16 00:01:00,
2013-08-15 20:06:00,69.3,51.0,30.33,NE,45,0.1,0.1,52,0.00,,,0.03,WUHU216TE923,2013-08-16 00:06:00,
2013-08-15 20:11:00,68.9,50.6,30.33,SSW,203,0.2,2.6,52,0.00,,,0.03,WUHU216TE923,2013-08-16 00:11:00,
2013-08-15 20:16:00,68.9,50.6,30.33,SSW,203,0.2,2.6,52,0.00,,,0.03,WUHU216TE923,2013-08-16 00:16:00,
2013-08-15 20:21:00,68.7,51.0,30.33,SE,135,0.3,0.3,53,0.00,,,0.03,WUHU216TE923,2013-08-16 00:21:00,
2013-08-15 20:26:00,68.7,51.0,30.33,SE,135,0.3,0.3,53,0.00,,,0.03,WUHU216TE923,2013-08-16 00:26:00,
2013-08-15 20:31:00,68.4,50.2,30.34,SW,225,0.3,1.5,52,0.00,,,0.03,WUHU216TE923,2013-08-16 00:31:00,
2013-08-15 20:36:00,68.4,50.2,30.34,SW,225,0.3,1.5,52,0.00,,,0.03,WUHU216TE923,2013-08-16 00:36:00,
2013-08-15 20:42:00,68.0,50.3,30.34,West,270,0.7,2.3,53,0.00,,,0.03,WUHU216TE923,2013-08-16 00:42:00,
2013-08-15 20:47:00,67.8,50.7,30.34,NW,315,0.3,2.3,54,0.00,,,0.03,WUHU216TE923,2013-08-16 00:47:00,
2013-08-15 20:52:00,67.6,51.0,30.34,NW,315,0.3,0.3,55,0.00,,,0.03,WUHU216TE923,2013-08-16 00:52:00,
2013-08-15 20:57:00,67.5,50.9,30.34,West,270,0.1,0.3,55,0.00,,,0.03,WUHU216TE923,2013-08-16 00:57:00,
2013-08-15 21:02:00,67.5,51.4,30.34,WSW,248,0.1,0.1,56,0.00,,,0.03,WUHU216TE923,2013-08-16 01:02:00,
2013-08-15 21:07:00,67.5,51.4,30.34,WSW,248,0.1,0.1,56,0.00,,,0.03,WUHU216TE923,2013-08-16 01:07:00,
2013-08-15 21:12:00,67.3,51.2,30.34,SE,135,0.2,0.3,56,0.00,,,0.03,WUHU216TE923,2013-08-16 01:12:00,
2013-08-15 21:17:00,66.9,50.8,30.34,SW,225,0.1,0.2,56,0.00,,,0.03,WUHU216TE923,2013-08-16 01:17:00,
2013-08-15 21:22:00,66.9,50.8,30.34,SSW,203,0.1,0.1,56,0.00,,,0.03,WUHU216TE923,2013-08-16 01:22:00,
2013-08-15 21:27:00,66.7,50.1,30.34,WSW,248,0.4,1.8,55,0.00,,,0.03,WUHU216TE923,2013-08-16 01:27:00,
2013-08-15 21:32:00,66.7,50.6,30.34,ENE,68,0.5,1.8,56,0.00,,,0.03,WUHU216TE923,2013-08-16 01:32:00,
2013-08-15 21:38:00,66.6,50.5,30.26,NNE,23,0.3,0.5,56,0.00,,,0.03,WUHU216TE923,2013-08-16 01:38:00,
2013-08-15 21:43:00,66.4,50.3,30.26,WNW,293,0.0,0.3,56,0.00,,,0.03,WUHU216TE923,2013-08-16 01:43:00,
2013-08-15 21:47:00,66.4,50.3,30.30,ENE,68,0.0,0.0,56,0.00,,,0.03,WUHU216TE923,2013-08-16 01:47:00,
2013-08-15 21:53:00,66.2,50.2,30.30,NNW,338,0.0,0.0,56,0.00,,,0.03,WUHU216TE923,2013-08-16 01:53:00,
2013-08-15 21:57:00,66.0,50.0,30.30,WSW,248,0.0,0.0,56,0.00,,,0.03,WUHU216TE923,2013-08-16 01:57:00,
2013-08-15 22:02:00,65.8,50.3,30.30,NE,45,0.0,0.0,57,0.00,,,0.03,WUHU216TE923,2013-08-16 02:02:00,
2013-08-15 22:08:00,65.8,50.3,30.28,ENE,68,0.0,0.0,57,0.00,,,0.03,WUHU216TE923,2013-08-16 02:08:00,
2013-08-15 22:13:00,65.7,50.2,30.28,NW,315,0.0,0.0,57,0.00,,,0.03,WUHU216TE923,2013-08-16 02:13:00,
2013-08-15 22:18:00,65.7,50.7,30.28,NNE,23,0.0,0.0,58,0.00,,,0.03,WUHU216TE923,2013-08-16 02:18:00,
2013-08-15 22:23:00,65.5,50.5,30.28,North,0,0.0,0.0,58,0.00,,,0.03,WUHU216TE923,2013-08-16 02:23:00,
2013-08-15 22:28:00,65.3,50.8,30.28,North,0,0.0,0.0,59,0.00,,,0.03,WUHU216TE923,2013-08-16 02:28:00,
2013-08-15 22:33:00,65.1,50.6,30.28,North,0,0.0,0.0,59,0.00,,,0.03,WUHU216TE923,2013-08-16 02:33:00,
2013-08-15 22:38:00,64.9,50.8,30.28,NNE,23,0.0,0.0,60,0.00,,,0.03,WUHU216TE923,2013-08-16 02:38:00,
2013-08-15 22:43:00,64.8,50.7,30.28,NNE,23,0.0,0.0,60,0.00,,,0.03,WUHU216TE923,2013-08-16 02:43:00,
2013-08-15 22:48:00,64.6,51.0,30.32,NNE,23,0.0,0.0,61,0.00,,,0.03,WUHU216TE923,2013-08-16 02:48:00,
2013-08-15 22:53:00,64.4,50.8,30.32,NNW,338,0.0,0.0,61,0.00,,,0.03,WUHU216TE923,2013-08-16 02:53:00,
2013-08-15 22:58:00,64.2,51.1,30.32,NNW,338,0.0,0.0,62,0.00,,,0.03,WUHU216TE923,2013-08-16 02:58:00,
2013-08-15 23:03:00,64.2,51.5,30.32,NNW,338,0.0,0.0,63,0.00,,,0.03,WUHU216TE923,2013-08-16 03:03:00,
2013-08-15 23:08:00,64.2,51.9,30.32,North,0,0.0,0.0,64,0.00,,,0.03,WUHU216TE923,2013-08-16 03:08:00,
2013-08-15 23:13:00,64.0,51.7,30.32,North,0,0.0,0.0,64,0.00,,,0.03,WUHU216TE923,2013-08-16 03:13:00,
2013-08-15 23:18:00,64.0,52.2,30.32,North,0,0.0,0.0,65,0.00,,,0.03,WUHU216TE923,2013-08-16 03:18:00,
2013-08-15 23:23:00,64.0,52.2,30.32,North,0,0.0,0.0,65,0.00,,,0.03,WUHU216TE923,2013-08-16 03:23:00,
2013-08-15 23:28:00,63.9,52.1,30.37,NNE,23,0.0,0.0,65,0.00,,,0.03,WUHU216TE923,2013-08-16 03:28:00,
2013-08-15 23:33:00,63.7,52.3,30.37,NNE,23,0.0,0.0,66,0.00,,,0.03,WUHU216TE923,2013-08-16 03:33:00,
2013-08-15 23:38:00,63.7,52.3,30.37,NE,45,0.0,0.0,66,0.00,,,0.03,WUHU216TE923,2013-08-16 03:38:00,
2013-08-15 23:43:00,63.7,52.3,30.37,NE,45,0.0,0.0,66,0.00,,,0.03,WUHU216TE923,2013-08-16 03:43:00,
2013-08-15 23:48:00,63.5,52.5,30.42,NE,45,0.0,0.0,67,0.00,,,0.03,WUHU216TE923,2013-08-16 03:48:00,
2013-08-15 23:53:00,63.3,52.3,30.42,NE,45,0.0,0.0,67,0.00,,,0.03,WUHU216TE923,2013-08-16 03:53:00,
2013-08-15 23:58:00,63.3,52.3,30.42,NE,45,0.0,0.0,67,0.00,,,0.03,WUHU216TE923,2013-08-16 03:58:00,